Fortuna, CA

2:58 AM PST on December 06, 2019 (GMT -0800)
Rohnerville

Weather History for KFOT - November, 2019

Change the Weather History Date:

Tuesday, November 12, 2019

  Actual Average (KEKA) Record (KEKA)
Temperature  
Mean Temperature 52 °F -  
Max Temperature 60 °F 59 °F 73 °F (1967)
Min Temperature 44 °F 44 °F 31 °F (1985)
Degree Days  
Heating Degree Days 13    
Growing Degree Days 2 (Base 50)    
Moisture  
Dew Point 49 °F    
Average Humidity 96    
Maximum Humidity 100    
Minimum Humidity 72    
Precipitation  
Precipitation 0.00 in - - ()
Sea Level Pressure  
Sea Level Pressure 30.09 in    
Wind  
Wind Speed 5 mph ()    
Max Wind Speed 13 mph    
Max Gust Speed -    
Visibility 2.5 miles    
Events      
Averages and records for this station are not official NWS values.
T = Trace of Precipitation, MM = Missing Value Source: Averaged Metar Reports

Daily Weather History Graph

Daily Weather History Graph

Search for Another Location

Airport or City:

Astronomy

Nov. 12, 2019 Rise Set
Actual Time 6:59 AM PST 5:01 PM PST
Civil Twilight 6:30 AM PST 5:30 PM PST
Nautical Twilight 5:57 AM PST 6:03 PM PST
Astronomical Twilight 5:25 AM PST 6:35 PM PST
Moon 5:31 PM PST (11/12) 6:56 AM PST (11/12)
Length of Visible Light 11h 00m
Length of Day
10h 02m
Full, 100% of the Moon is Illuminated
Nov 12
Full
Nov 19
Last Quarter
Nov 26
New
Dec 3
First Quarter
Dec 11
Full

Hourly Weather History & Observations

Time (PST) Temp. Windchill Dew Point Humidity Pressure Visibility Wind Dir Wind Speed Gust Speed Precip Events Conditions
12:10 AM 48.2 °F - 46.4 °F 93% 30.10 in 0.2 mi SSE 8.1 mph - N/A   Overcast
12:30 AM 48.2 °F - 46.4 °F 93% 30.09 in 0.2 mi SSE 9.2 mph - N/A   Overcast
12:50 AM 46.4 °F 41.5 °F 46.4 °F 100% 30.09 in 0.2 mi SE 10.4 mph - N/A   Overcast
1:10 AM 48.2 °F - 46.4 °F 93% 30.08 in 0.2 mi SE 9.2 mph - N/A   Unknown
1:30 AM 46.4 °F - 46.4 °F 100% 30.09 in 0.2 mi Calm Calm - N/A   Overcast
1:50 AM 46.4 °F - 46.4 °F 100% 30.09 in 0.2 mi Calm Calm - N/A   Overcast
2:10 AM 46.4 °F 45.2 °F 46.4 °F 100% 30.09 in 0.2 mi SE 3.5 mph - N/A   Mostly Cloudy
2:30 AM 46.4 °F 42.4 °F 46.4 °F 100% 30.09 in 1.2 mi SE 8.1 mph - N/A   Clear
2:50 AM 46.4 °F - 46.4 °F 100% 30.10 in 0.8 mi Calm Calm - N/A   Unknown
3:15 AM 46.4 °F 45.2 °F 46.4 °F 100% 30.10 in 0.2 mi NNW 3.5 mph - N/A   Overcast
3:35 AM 46.4 °F - 46.4 °F 100% 30.10 in 0.2 mi Calm Calm - N/A   Overcast
3:55 AM 46.4 °F - 46.4 °F 100% 30.10 in 0.2 mi Calm Calm - N/A   Overcast
4:15 AM 46.4 °F 44.3 °F 46.4 °F 100% 30.09 in 0.2 mi South 4.6 mph - N/A   Overcast
4:35 AM 46.4 °F 43.5 °F 46.4 °F 100% 30.09 in 0.2 mi SE 5.8 mph - N/A   Overcast
4:55 AM 46.4 °F 43.5 °F 46.4 °F 100% 30.09 in 0.2 mi SSE 5.8 mph - N/A   Overcast
5:15 AM 44.6 °F 43.1 °F 44.6 °F 100% 30.09 in 0.2 mi SE 3.5 mph - N/A   Overcast
5:35 AM 44.6 °F - 44.6 °F 100% 30.09 in 0.2 mi Calm Calm - N/A   Overcast
5:55 AM 46.4 °F 44.3 °F 46.4 °F 100% 30.09 in 0.2 mi North 4.6 mph - N/A   Overcast
6:15 AM 46.4 °F 45.2 °F 46.4 °F 100% 30.09 in 0.2 mi NW 3.5 mph - N/A   Overcast
6:35 AM 46.4 °F - 46.4 °F 100% 30.10 in 0.2 mi Calm Calm - N/A   Overcast
6:55 AM 46.4 °F 44.3 °F 46.4 °F 100% 30.11 in 0.2 mi NNW 4.6 mph - N/A   Overcast
7:10 AM 46.4 °F - 46.4 °F 100% 30.12 in 0.2 mi Calm Calm - N/A   Overcast
7:35 AM 46.4 °F - 46.4 °F 100% 30.14 in 0.2 mi Calm Calm - N/A   Overcast
7:55 AM 46.4 °F 43.5 °F 46.4 °F 100% 30.14 in 0.2 mi SSE 5.8 mph - N/A   Overcast
8:15 AM 46.4 °F 42.4 °F 46.4 °F 100% 30.13 in 0.2 mi SE 8.1 mph - N/A   Overcast
8:35 AM 46.4 °F 41.5 °F 46.4 °F 100% 30.13 in 0.2 mi SE 10.4 mph - N/A   Overcast
8:55 AM 46.4 °F 41.9 °F 46.4 °F 100% 30.13 in 0.2 mi SE 9.2 mph - N/A   Overcast
9:15 AM 48.2 °F - 48.2 °F 100% 30.12 in 0.2 mi SE 9.2 mph - N/A   Overcast
9:55 AM 51.8 °F - 51.8 °F 100% 30.13 in 10.0 mi ESE 4.6 mph - N/A   Clear
10:15 AM 53.6 °F - 53.6 °F 100% 30.12 in 10.0 mi SSE 6.9 mph - N/A   Clear
10:30 AM 55.4 °F - 53.6 °F 94% 30.12 in 10.0 mi SSE 5.8 mph - N/A   Partly Cloudy
10:50 AM 57.2 °F - 50.0 °F 77% 30.12 in 10.0 mi SE 5.8 mph - N/A   Partly Cloudy
11:10 AM 60.8 °F - 51.8 °F 72% 30.12 in 10.0 mi Calm Calm - N/A   Clear
11:30 AM 60.8 °F - 53.6 °F 77% 30.12 in 10.0 mi West 3.5 mph - N/A   Clear
11:50 AM 60.8 °F - 53.6 °F 77% 30.11 in 10.0 mi Calm Calm - N/A   Clear
12:10 PM 60.8 °F - 55.4 °F 82% 30.10 in 10.0 mi NW 8.1 mph - N/A   Clear
12:30 PM 59.0 °F - 53.6 °F 82% 30.10 in 10.0 mi WNW 9.2 mph - N/A   Clear
12:50 PM 59.0 °F - 53.6 °F 82% 30.09 in 10.0 mi NW 8.1 mph - N/A   Clear
1:10 PM 59.0 °F - 53.6 °F 82% 30.09 in 10.0 mi WNW 9.2 mph - N/A   Clear
1:30 PM 57.2 °F - 53.6 °F 88% 30.09 in 10.0 mi WNW 8.1 mph - N/A   Clear
1:50 PM 57.2 °F - 53.6 °F 88% 30.09 in 10.0 mi NW 8.1 mph - N/A   Clear
2:10 PM 57.2 °F - 53.6 °F 88% 30.09 in 10.0 mi WNW 6.9 mph - N/A   Partly Cloudy
2:30 PM 57.2 °F - 53.6 °F 88% 30.08 in 10.0 mi WNW 10.4 mph - N/A   Partly Cloudy
2:50 PM 53.6 °F - 51.8 °F 94% 30.08 in 10.0 mi WNW 12.7 mph - N/A   Partly Cloudy
3:10 PM 51.8 °F - 51.8 °F 100% 30.08 in 2.5 mi WNW 10.4 mph - N/A   Mostly Cloudy
3:30 PM 51.8 °F - 51.8 °F 100% 30.08 in 0.2 mi NW 5.8 mph - N/A   Overcast
3:50 PM 51.8 °F - 51.8 °F 100% 30.07 in 0.2 mi NW 6.9 mph - N/A   Overcast
4:10 PM 51.8 °F - 50.0 °F 94% 30.07 in 0.2 mi NNW 9.2 mph - N/A   Overcast
4:35 PM 50.0 °F - 50.0 °F 100% 30.06 in 0.2 mi Calm Calm - N/A   Overcast
4:55 PM 50.0 °F - 50.0 °F 100% 30.07 in 0.2 mi NW 4.6 mph - N/A   Overcast
5:15 PM 50.0 °F - 50.0 °F 100% 30.06 in 0.2 mi Calm Calm - N/A   Overcast
5:35 PM 50.0 °F - 50.0 °F 100% 30.06 in 0.2 mi Calm Calm - N/A   Overcast
5:55 PM 50.0 °F - 50.0 °F 100% 30.06 in 0.2 mi Calm Calm - N/A   Overcast
6:15 PM 50.0 °F - 50.0 °F 100% 30.06 in 0.2 mi Calm Calm - N/A   Overcast
6:35 PM 50.0 °F - 50.0 °F 100% 30.06 in 0.2 mi Calm Calm - N/A   Overcast
6:55 PM 50.0 °F - 48.2 °F 94% 30.06 in 0.2 mi Calm Calm - N/A   Overcast
7:15 PM 48.2 °F - 48.2 °F 100% 30.06 in 0.2 mi Calm Calm - N/A   Overcast
7:35 PM 48.2 °F - 48.2 °F 100% 30.06 in 0.2 mi SSE 4.6 mph - N/A   Overcast
7:55 PM 48.2 °F - 48.2 °F 100% 30.06 in 0.2 mi SSE 3.5 mph - N/A   Overcast
8:15 PM 48.2 °F - 48.2 °F 100% 30.06 in 0.2 mi Calm Calm - N/A   Overcast
8:35 PM 48.2 °F - 48.2 °F 100% 30.06 in 0.2 mi Calm Calm - N/A   Overcast
8:55 PM 48.2 °F - 48.2 °F 100% 30.05 in 0.2 mi Calm Calm - N/A   Overcast
9:15 PM 48.2 °F - 48.2 °F 100% 30.06 in 0.2 mi Calm Calm - N/A   Overcast
9:35 PM 48.2 °F - 48.2 °F 100% 30.06 in 0.2 mi SE 3.5 mph - N/A   Overcast
9:55 PM 48.2 °F - 48.2 °F 100% 30.06 in 0.2 mi Calm Calm - N/A   Overcast
10:15 PM 48.2 °F - 48.2 °F 100% 30.05 in 0.2 mi South 3.5 mph - N/A   Overcast
10:35 PM 48.2 °F - 48.2 °F 100% 30.05 in 0.2 mi Calm Calm - N/A   Overcast
11:15 PM 46.4 °F 42.9 °F 46.4 °F 100% 30.04 in 0.2 mi SSE 6.9 mph - N/A   Overcast
11:35 PM 46.4 °F 43.5 °F 46.4 °F 100% 30.03 in 0.2 mi SSE 5.8 mph - N/A   Overcast
11:55 PM 46.4 °F 43.5 °F 46.4 °F 100% 30.03 in 0.2 mi SSE 5.8 mph - N/A   Overcast